CXBN-2 (42704 NORAD) Tracking and Keplerian Element Data

This shows tracking and keplerian element data for the satellite.

Feedback or suggestion? Click here.




ElementValue
Catalog42704
NameCXBN-2
Epoch Orbit8589
Epoch Day320.19548288
Epoch Year2018
RAAN293.2419
Inclination51.6303
Eccentricity0.0004667
Argument of Perigee71.4093
Mean Anonmoly288.7416
Mean Motion15.82850343
Decay Rate0.00064012
L11 42704U 98067LM 18320.19548288 .00064012 00000-0 29622-3 0 9993
L22 42704 51.6303 293.2419 0004667 71.4093 288.7416 15.82850343 85899

Live tracking and technical data element details for CXBN-2 (NORAD 42704). CXBN-2 can be tracked NOW for your location showing map with azimuth and elevation plus other details from your city location.

Track the satellite on the map from your city or location and see movement details for azimuth, elevation, latitude, longitude, range, height, and movement on the map or in text.







IsCatalogInMostPopularTable: catalog: 42704, numindb: 158
Update: records affected: 1



GetName: 42704 CXBN-2

Hit Count: updated at: Fri, 16 Nov 2018 11:20:03 GMT